Weather in Pervoye Maya

Russia / Bryansk Oblast     52°44′35″N   32°12′05″E
temp.,
°C
wind,
m/s
gust,
m/s
humid.,
%
clouds,
%
prec.,
mm/h
press.,
hPa
HPBL,
m
13 may, thu
thu1300:00+8sse3793100 3.2 1014305
03:00+8e2593100 3.4 1013189
06:00+7ese489312 0.1 1012317
09:00+9ese569099 0.4 1011589
12:00+12sse567381 0.6 10111182
15:00+14s6762100 1.1 10111537
18:00+13s4774100 0.3 1011489
21:00+9se41190100 0.5 1011254
14 may, fri
fri1400:00+10se5138159 0.0 1011326
03:00+9se51386100 0.0 1011278
06:00+10se51281100 0.1 1011267
09:00+11se51181100 0.1 1011318
12:00+18se7962100 0.0 10101036
15:00+20se686829 0.2 10071296
18:00+18sse3679100 2.4 1006271
21:00+15sse4889100 4.9 1005144
15 may, sat
sat1500:00+12s38945 0.1 1006140
03:00+11sse35955 0.1 100688
06:00+11s5896100 0.0 1006396
09:00+13sw5995100 0.3 1008575
12:00+13ssw599597 0.9 1009473
15:00+16ssw597678 1.2 1010865
18:00+17ssw5871100 0.3 10101001
21:00+12s46875 0.3 101195
16 may, sun
sun1600:00+11ssw37944 0.0 1011135
03:00+10ssw37965 0.0 1012122
06:00+10ssw369796 0.0 1013146
09:00+15sw45807 0.0 1014502
12:00+19ssw336539 0.1 10141248
15:00+21s445678 0.4 10131726
18:00+20sse3461100 0.0 1012597
21:00+15sse2278100 0.1 101315
17 may, mon
mon1700:00+14ese338376 0.0 101242
03:00+13ese4888100 0.0 1012135
06:00+13ese41087100 0.0 1010175
09:00+18e5875100 0.0 1009298
12:00+20e2475100 1.0 1008553
15:00+23ese3563100 1.0 10061265
18:00+19w3484100 2.5 1005120
21:00+15nw5998100 4.3 1006301